Location: La Bilong�re
(48.1297°N, 1.4584°W)
Time: 06:19:36
(UTC+00:00)

Cosmos 2154 Rocket - Pass Details

Date: 03 March 2021
Orbit: 966 x 996 km, 82.9° (Epoch: 11 April)

Event Time Altitude Azimuth Distance (km) Brightness Sun altitude
Rises 19:19:07 0° 196° (SSW) 3,657 7.1 -15.1°
Reaches altitude 10° 19:21:39 10° 198° (SSW) 2,710 6.5 -15.5°
Maximum altitude 19:27:49 68° 281° (WNW) 1,045 4.4 -16.5°
Drops below altitude 10° 19:34:01 10° 5° (N) 2,718 6.4 -17.5°
Sets 19:36:33 0° 8° (N) 3,669 7.1 -17.9°
